Weather History for KPIH - June, 2012

Change the Weather History Date:

Saturday, June 2, 2012

  Actual Average Record
Temperature  
Mean Temperature 68 °F 58 °F  
Max Temperature 87 °F 73 °F 89 °F (1986)
Min Temperature 49 °F 44 °F 32 °F (1954)
Degree Days  
Heating Degree Days 0 7  
Month to date heating degree days 0 14  
Since 1 June heating degree days 0 14  
Since 1 July heating degree days 6493 7061  
Cooling Degree Days 3 1  
Month to date cooling degree days 7 1  
Year to date cooling degree days 11 6  
Since 1 June cooling degree days 7 1  
Growing Degree Days 18 (Base 50)    
Moisture  
Dew Point 46 °F    
Average Humidity 51    
Maximum Humidity 80    
Minimum Humidity 21    
Precipitation  
Precipitation 0.00 in 0.04 in 0.53 in (1993)
Month to date precipitation 0.00 0.09  
Year to date precipitation 5.34 5.92  
Snow  
Snow 0.00 in - - ()
Month to date snowfall 0.0  
Since 1 June snowfall 0.0  
Since 1 July snowfall 15.8  
Snow Depth 0.00 in    
Sea Level Pressure  
Sea Level Pressure 29.70 in    
Wind  
Wind Speed 10 mph (West)    
Max Wind Speed 22 mph    
Max Gust Speed 25 mph    
Visibility 10 miles    
Events      
T = Trace of Precipitation, MM = Missing Value Source: NWS Daily Summary

Daily Weather History Graph

Daily Weather History Graph

Search for Another Location

Airport or City:

Trip Planner

Search our weather history database for the weather conditions in past years. The results will help you decide how hot, cold, wet, or windy it might be!

Date:

Astronomy

Jun. 02, 2012 Rise Set
Actual Time 5:53 AM MDT 9:03 PM MDT
Civil Twilight 5:18 AM MDT 9:38 PM MDT
Nautical Twilight 4:34 AM MDT 10:22 PM MDT
Astronomical Twilight 3:41 AM MDT 11:16 PM MDT
Moon 7:22 PM MDT (6/2) 4:17 AM MDT (6/2)
Length of Visible Light 16h 19m
Length of Day
15h 10m
Waxing Gibbous, 96% of the Moon is Illuminated
Jun 2
Waxing Gibbous
Jun 4
Full
Jun 11
Last Quarter
Jun 19
New
Jun 26
First Quarter

Hourly Weather History & Observations

Time (MDT) Temp. Dew Point Humidity Pressure Visibility Wind Dir Wind Speed Gust Speed Precip Events Conditions
12:53 AM 61.0 °F 41.0 °F 48% 29.75 in 10.0 mi Calm Calm - N/A   Clear
1:53 AM 59.0 °F 42.1 °F 53% 29.75 in 10.0 mi Calm Calm - N/A   Clear
2:53 AM 55.9 °F 43.0 °F 62% 29.73 in 10.0 mi ENE 3.5 mph - N/A   Clear
3:53 AM 53.1 °F 46.0 °F 77% 29.72 in 10.0 mi North 5.8 mph - N/A   Clear
4:53 AM 53.1 °F 46.0 °F 77% 29.72 in 10.0 mi NNW 8.1 mph - N/A   Clear
5:53 AM 50.0 °F 45.0 °F 83% 29.72 in 10.0 mi SE 3.5 mph - N/A   Clear
6:53 AM 53.1 °F 46.9 °F 80% 29.72 in 10.0 mi North 6.9 mph - N/A   Clear
7:53 AM 57.9 °F 48.9 °F 72% 29.73 in 10.0 mi Calm Calm - N/A   Scattered Clouds
8:53 AM 61.0 °F 48.9 °F 64% 29.77 in 10.0 mi North 9.2 mph - N/A   Scattered Clouds
9:53 AM 66.9 °F 50.0 °F 54% 29.75 in 10.0 mi East 11.5 mph - N/A   Scattered Clouds
10:53 AM 73.0 °F 48.9 °F 42% 29.74 in 10.0 mi NNE 6.9 mph - N/A   Scattered Clouds
11:53 AM 78.1 °F 48.0 °F 35% 29.70 in 10.0 mi West 6.9 mph - N/A   Scattered Clouds
12:53 PM 79.0 °F 46.9 °F 32% 29.72 in 10.0 mi West 12.7 mph - N/A   Clear
1:53 PM 82.0 °F 48.9 °F 31% 29.69 in 10.0 mi West 12.7 mph 19.6 mph N/A   Scattered Clouds
2:53 PM 84.0 °F 44.1 °F 25% 29.67 in 10.0 mi SW 18.4 mph 24.2 mph N/A   Partly Cloudy
3:53 PM 84.9 °F 44.1 °F 24% 29.66 in 10.0 mi WSW 18.4 mph 25.3 mph N/A   Partly Cloudy
4:53 PM 86.0 °F 43.0 °F 22% 29.65 in 10.0 mi WSW 20.7 mph 24.2 mph N/A   Scattered Clouds
5:53 PM 84.9 °F 43.0 °F 23% 29.65 in 10.0 mi WSW 13.8 mph 23.0 mph N/A   Scattered Clouds
6:53 PM 81.0 °F 46.9 °F 30% 29.66 in 10.0 mi WSW 11.5 mph - N/A   Partly Cloudy
7:53 PM 78.1 °F 48.0 °F 35% 29.66 in 10.0 mi WSW 10.4 mph - N/A   Clear
8:53 PM 71.1 °F 50.0 °F 47% 29.68 in 10.0 mi WSW 9.2 mph - N/A   Clear
9:53 PM 68.0 °F 48.9 °F 50% 29.69 in 10.0 mi SW 9.2 mph - N/A   Clear
10:53 PM 66.0 °F 46.0 °F 48% 29.71 in 10.0 mi SSW 8.1 mph - N/A   Clear
11:53 PM 68.0 °F 46.9 °F 47% 29.71 in 10.0 mi SW 10.4 mph - N/A   Partly Cloudy